FENGYUN 1C DEB, 30181

Orbit data source: Space-Track

FENGYUN 1C DEB, 30181 is space debris in SSO originally from a launch on Mon, 10 May 1999 UTC launched from the Taiyaun Space Center, China (TSC). Fengyun 1C debris stems from the Chinese weather satellite Fengyun-1C, which was intentionally destroyed by a Chinese anti-satellite missile in 2007. This event dramatically increased the amount of space debris, with thousands of trackable fragments posing hazards to satellites and human spaceflight. The Fengyun 1C debris cloud has become a focal point in discussions about space sustainability and the need for international regulations to prevent the creation of new debris.

Loading next visibility...
Identifier
30181, 1999-025UN
Orbit
SSO
Country
Flag of CNCN / PRC
Related business
Manufacturer
Unknown
Mission
Spacecraft
Bus & Motor
Unknown
Mass
Unknown
Launch date (UTC)
1999-05-10 (27 years ago)
Launch vehicle
Unknown
Launch site
Taiyaun Space Center, China (TSC)
Object type
Payload
Rocket body
Debris
Shape & HBR
Unknown shape, 0.1 m
Radar Cross Section
Small (<0.1 m²)

Expand to show TLE details & history
Last TLE update: 22 hours ago

TLE from 22 hours ago
0 FENGYUN 1C DEB
1 30181U 99025UN  26106.20972045  .00001947  00000-0  76211-3 0  9993
2 30181  98.8336 196.2664 0037663 357.9643  33.1178 14.30302633992905
Epoch: 2026-04-16T05:01Z
TLE epoch observation values (Epoch: 2026-04-16T05:01:59.846Z)
Latitude
30.96249°
Longitude
-88.91495°
Altitude
772.048 km
Speed
7.483 km/s
True Right ascension
12h 43m 46s
True Declination
30° 48' 41"
Sunlit
Object was in full shadow at epoch
Visualization orbit readout
Latitude
Unknown
Longitude
Unknown
Altitude
Unknown
Speed
Unknown
Apparent Right ascension
Unknown
Apparent Declination
Unknown
Sunlit
N/A
Visualization observer readout
Local Sidereal Time
10:03:02
Azimuth
Unknown
Elevation
Unknown
Doppler factor
Unknown
Orbital elements
Apogee altitude
814.86 km
Perigee altitude
760.881 km
Semi-major axis
7,166.007 km
Eccentricity
0.00377
Inclination
98.8336°
RAAN
196.2664°
Arg. of periapsis
357.9643°
True anomaly
33.35454°
Mean anomaly
33.1178°
Eccentric anomaly
33.23607°
Mean motion
3.57789 °/min
Orbital period
100.62 mins
BSTAR
0.00076211
Loading maneuver chart data...
Computing Atmospheric mass density...
Loading historical data...
Loading historical data...
Loading historical data...
Loading historical data...
Loading historical data...
Loading historical data...
Loading historical data...

Documentation

Showing up to 5 results
|